Wind_Speed
80 80 80 80 79 79 78 77 75 74 74 72 72 71 71 71 72 72 72 72 73 73 74 74 74 73 73 74 75 76 77 78 80 81 83 85 85 85 85 85 84 83 81 80 79 78 76 74 74 74 74 73 73 72 70 68 66 65 64 63 61 58 55 54 54 54 54 53 53 53 52 50 47 46 45 45 44 43 43 44 46 48 49 50 49 47
83 83 83 82 82 82 81 79 78 77 76 75 73 73 72 72 72 72 72 72 73 74 74 74 74 74 73 73 73 74 75 77 78 79 81 82 84 85 85 86 85 84 82 81 80 78 77 75 74 74 74 74 74 73 71 69 67 66 65 64 62 59 56 55 55 55 55 54 53 52 51 49 47 45 45 45 44 43 43 44 45 46 47 48 48 46
84 85 85 84 84 84 83 82 80 79 78 77 76 74 73 73 73 73 73 73 73 74 74 74 74 74 74 73 73 73 74 75 76 77 78 80 82 83 84 86 86 85 84 82 80 79 77 76 75 74 73 74 74 74 72 69 68 67 66 65 63 60 57 55 55 55 55 54 53 52 51 48 46 45 45 45 44 43 43 44 44 43 43 44 44 44
86 86 86 85 85 85 84 83 82 81 80 79 78 77 75 75 74 74 73 73 73 73 74 75 75 75 74 73 73 73 73 74 75 76 77 78 79 81 83 84 85 86 85 83 81 79 78 77 75 74 73 74 74 73 72 70 69 67 66 65 63 61 58 56 56 56 55 55 53 52 50 48 46 46 46 46 45 44 44 44 43 41 40 40 41 42
87 86 86 86 86 86 85 84 84 83 82 81 80 79 77 76 76 75 74 74 73 73 73 74 75 75 75 74 73 73 72 73 74 75 76 76 77 78 80 82 83 85 85 85 83 81 79 78 76 75 74 74 74 74 72 71 70 68 67 65 64 61 59 57 57 56 56 55 53 51 49 47 46 47 47 47 46 45 45 44 42 39 38 38 40 42
87 87 87 87 87 86 85 85 84 84 83 82 82 80 79 78 77 76 76 75 74 73 73 73 74 75 75 75 74 73 72 72 73 74 75 75 76 77 78 79 81 83 84 85 84 82 80 79 77 76 75 75 74 74 73 72 71 69 67 66 64 62 60 58 57 56 56 55 53 51 48 46 46 47 48 48 47 46 45 44 42 39 38 38 40 42
88 88 87 87 87 87 86 85 85 84 84 83 83 82 81 80 79 78 77 76 75 74 73 73 73 74 74 75 74 73 73 72 72 73 74 75 75 75 76 77 79 81 83 84 84 84 82 80 78 77 76 75 75 74 73 73 72 70 68 66 64 63 61 59 57 56 55 55 53 50 46 45 46 48 50 49 48 47 46 45 42 40 39 39 41 43
89 88 88 87 87 87 86 86 85 84 84 84 83 82 81 81 80 79 78 77 76 75 74 73 73 73 73 74 74 74 73 72 72 72 73 74 74 75 75 75 77 79 81 82 83 84 83 81 79 77 76 75 75 75 74 74 72 71 69 67 65 63 61 59 57 55 55 54 51 48 45 45 47 49 51 51 50 48 47 45 43 41 41 41 43 45
89 88 88 87 87 87 87 86 85 84 84 84 83 83 82 81 80 79 79 78 77 76 75 74 73 72 73 73 73 73 73 73 72 72 72 73 73 74 74 75 75 77 79 80 82 83 83 81 80 78 76 76 75 75 75 75 74 72 70 68 65 63 61 60 57 55 54 53 51 48 46 46 48 50 52 52 51 49 47 45 44 43 43 44 46 47
89 88 88 87 87 87 87 87 85 84 84 84 83 83 82 81 80 80 79 78 78 77 76 74 73 73 72 72 72 73 73 73 72 72 72 72 73 73 74 74 75 76 77 79 81 82 82 82 80 78 77 76 75 75 75 75 74 73 71 69 66 63 61 60 58 56 54 53 51 49 48 48 49 51 52 52 50 48 47 46 45 45 46 47 49 50
89 88 88 87 87 86 86 86 85 84 83 83 83 83 82 81 80 80 79 79 78 77 76 75 74 73 73 72 72 72 72 73 72 72 72 72 72 73 73 74 74 75 76 78 80 81 81 81 81 79 78 76 75 74 74 75 74 73 72 70 67 64 61 60 58 57 56 54 52 49 49 49 50 51 52 52 50 48 47 46 47 47 47 48 49 50
88 88 87 87 86 86 85 85 84 84 83 82 82 82 81 81 80 80 80 79 78 77 76 75 75 74 73 73 73 73 72 73 72 72 72 71 72 72 73 73 74 74 75 77 78 79 80 80 81 80 78 77 76 74 74 74 73 73 72 70 68 66 63 61 59 58 57 55 52 50 51 50 50 50 51 51 49 47 47 47 48 48 48 48 48 47
87 86 86 86 86 85 84 84 83 83 82 81 81 81 80 80 80 79 80 79 78 77 76 75 75 74 74 73 73 73 73 73 73 72 72 71 71 71 72 73 73 74 75 76 77 78 79 80 80 80 79 78 76 75 74 73 72 71 70 70 69 68 65 63 61 59 58 55 53 52 52 51 49 49 49 48 48 47 47 48 48 48 48 47 46 44
85 85 85 85 85 84 83 82 82 81 81 80 80 80 80 79 79 79 79 79 78 77 76 76 75 74 74 73 73 73 73 73 73 72 72 71 71 71 71 72 73 74 75 76 77 78 78 78 79 79 79 78 77 75 73 71 70 68 68 69 70 69 66 64 62 60 58 55 53 54 54 51 48 47 47 47 47 47 48 48 48 47 46 45 43 42
82 83 83 83 83 82 81 80 80 79 79 78 78 78 78 78 78 78 78 78 78 77 76 76 75 75 74 73 73 73 73 73 73 72 72 72 71 70 70 71 72 73 74 75 77 78 78 78 78 78 79 78 77 75 73 70 68 67 68 70 70 69 66 64 63 61 58 55 55 55 55 50 48 47 46 46 47 47 48 48 47 46 44 43 41 40
80 80 80 80 80 79 78 78 77 77 77 76 76 76 76 77 77 77 77 77 77 76 76 75 75 75 74 73 73 73 73 73 73 73 72 72 71 70 69 69 70 72 73 75 76 77 78 78 78 78 78 78 77 75 73 70 68 69 70 71 71 69 66 65 64 61 58 56 57 57 55 51 48 47 47 47 47 48 48 48 47 45 43 41 40 39
77 77 77 77 77 77 76 75 75 74 74 74 74 75 75 76 76 76 76 76 76 76 75 75 75 74 74 73 72 72 73 74 74 74 72 72 71 69 68 67 68 70 73 74 76 77 78 78 78 78 78 77 77 75 73 71 70 71 72 72 71 69 68 66 65 62 59 58 59 59 56 51 48 47 47 48 48 49 49 48 47 45 43 41 39 39
76 75 75 75 75 74 73 73 72 72 72 72 72 73 74 74 75 75 75 75 75 75 75 75 74 74 73 72 72 72 72 73 74 74 73 72 71 69 68 66 67 69 71 73 75 76 78 78 78 78 77 77 77 76 75 73 72 71 71 71 70 70 69 68 66 63 61 61 61 60 56 51 48 48 48 48 49 49 49 49 48 46 43 41 40 39
75 74 74 73 73 72 72 71 70 70 70 70 71 71 72 73 73 73 74 74 74 74 74 74 74 73 73 72 71 71 71 73 74 75 74 73 71 69 67 66 65 67 69 72 74 76 77 78 78 78 77 77 77 77 76 75 73 71 70 69 69 69 68 68 67 65 63 63 63 62 57 52 49 48 49 49 49 49 50 50 48 46 43 41 40 39
76 75 73 72 72 72 71 70 69 68 68 69 69 70 71 72 72 72 73 73 73 73 73 73 73 73 72 71 71 70 71 72 74 75 75 74 72 69 68 66 64 65 67 70 73 75 76 78 79 78 77 77 77 77 77 76 74 71 70 67 65 65 65 66 66 66 65 65 65 63 58 53 49 49 49 49 49 49 50 50 48 45 42 41 40 40
79 77 74 73 72 72 71 69 68 67 67 68 68 69 70 70 71 71 72 72 72 72 73 73 73 72 71 70 70 70 70 72 74 75 76 75 72 70 68 66 64 64 65 68 71 73 76 78 79 78 77 77 77 78 78 77 75 74 72 66 63 62 63 65 66 66 66 67 66 64 60 54 50 50 50 50 50 50 50 50 47 43 41 41 41 41
81 79 77 75 74 73 72 70 68 67 67 67 67 68 68 69 69 70 70 71 71 72 72 72 72 72 70 70 69 69 70 71 73 75 76 75 73 71 68 66 64 63 63 66 69 72 75 77 79 79 78 78 79 80 80 79 79 77 74 68 64 62 62 64 66 66 67 67 67 65 61 55 51 50 51 50 50 52 52 51 48 44 43 43 43 42
82 81 80 78 76 75 73 71 70 68 67 67 67 68 68 68 68 69 69 70 70 71 71 72 72 71 70 69 69 69 69 71 73 74 75 75 74 71 68 66 64 63 63 65 67 71 74 77 79 80 79 80 81 82 82 82 81 78 74 69 65 64 64 65 66 66 67 67 67 65 61 55 52 51 51 51 51 53 56 54 50 48 48 48 47 45
78 79 79 79 78 77 75 73 72 70 69 68 68 68 67 67 68 68 69 69 70 70 70 71 70 70 69 68 68 68 69 70 72 73 74 75 74 72 69 67 65 64 63 64 66 69 73 76 79 80 82 83 84 85 85 84 81 78 73 68 65 65 66 67 67 66 66 66 66 64 61 56 53 52 52 52 53 55 57 54 50 49 51 52 51 48
70 72 74 76 77 77 77 76 74 72 71 70 69 68 68 68 68 68 68 69 69 69 69 69 69 69 68 67 67 67 68 69 71 72 74 75 74 72 70 68 67 65 64 63 64 67 71 74 78 81 83 85 86 87 86 85 81 76 71 66 65 66 68 68 68 66 66 66 66 64 61 56 54 54 55 55 56 56 56 53 49 49 52 54 53 50
62 64 67 69 72 74 75 76 75 74 73 71 70 70 69 69 68 68 68 68 68 68 68 69 69 69 68 66 66 67 67 68 70 72 73 74 74 73 71 70 68 66 64 62 63 65 69 73 77 80 84 86 87 88 88 86 81 75 69 65 64 66 68 68 67 65 65 66 66 64 61 57 56 57 59 59 59 57 55 51 49 49 52 54 54 51
56 57 59 61 64 67 70 72 74 74 73 73 72 71 70 70 70 70 69 68 67 67 68 68 68 68 67 66 65 66 67 68 69 71 73 74 74 73 72 71 69 67 64 61 61 63 66 71 75 80 83 86 88 89 88 87 82 76 69 64 63 65 67 66 65 64 64 65 65 63 60 58 59 60 61 61 59 56 53 51 49 49 52 54 54 51
51 51 53 54 56 59 62 66 69 71 72 72 72 72 72 72 72 71 70 68 67 67 67 68 67 66 65 65 65 65 66 67 69 70 72 73 74 74 72 71 69 67 64 61 60 61 64 69 74 79 83 86 88 89 89 88 84 78 70 63 62 64 67 66 65 64 64 64 64 62 60 60 61 61 60 58 55 52 51 51 50 50 52 54 53 50
47 46 47 48 49 51 54 58 61 65 68 70 71 72 72 73 73 72 70 68 67 67 68 67 67 65 65 64 64 64 66 67 68 70 71 73 74 73 72 71 70 68 65 62 60 60 63 67 72 77 82 85 87 88 89 89 87 81 73 64 61 63 67 67 67 66 66 65 64 63 61 60 59 58 56 54 52 49 49 50 51 51 52 53 51 48
46 45 44 44 44 45 48 51 54 58 62 65 68 70 72 73 73 72 70 68 68 68 68 67 66 64 64 63 63 64 65 67 68 68 70 72 73 73 71 71 70 68 66 63 61 60 62 65 70 75 80 84 86 88 89 90 89 85 76 66 62 63 68 70 70 69 68 67 66 64 61 58 56 54 54 53 50 48 48 49 50 51 51 51 49 46
47 46 45 43 42 42 43 45 48 52 55 59 63 66 69 70 71 71 70 69 68 68 67 66 65 64 63 62 63 64 65 66 66 67 69 72 73 72 71 70 70 68 66 64 62 61 61 63 67 73 79 83 86 87 89 91 91 87 80 70 63 63 68 71 72 72 70 69 67 65 60 55 53 53 53 52 50 48 48 48 49 50 50 49 47 45
48 48 47 45 43 42 41 42 43 46 50 54 58 61 65 67 68 69 69 68 68 67 67 66 65 63 62 62 63 64 65 65 66 67 69 71 72 72 71 70 69 68 66 64 62 61 61 62 65 71 76 81 85 87 89 91 92 90 83 72 64 64 69 73 74 73 71 71 69 65 58 53 52 54 54 52 50 48 47 47 48 48 48 47 46 45
48 47 47 45 44 42 41 40 40 42 45 49 52 56 60 63 65 66 66 67 67 66 66 65 64 63 62 62 62 63 64 65 65 67 69 71 72 72 71 69 68 66 65 64 62 61 60 61 63 68 74 80 84 87 90 92 94 91 84 74 66 65 71 75 75 74 73 73 71 66 57 53 54 55 55 53 50 49 47 46 46 47 47 46 46 47
46 46 45 44 43 42 41 39 39 39 41 44 48 51 55 58 60 62 63 64 65 65 65 64 63 62 61 60 61 62 63 64 65 67 69 71 72 72 71 69 67 66 65 63 62 60 59 59 62 66 72 78 84 88 91 94 95 92 85 74 67 67 73 76 76 75 74 74 73 67 59 55 56 57 56 54 52 50 48 47 46 46 46 46 47 48
45 44 43 42 41 40 39 38 37 37 38 41 44 47 50 53 56 58 60 61 62 62 62 62 61 60 60 59 60 61 63 64 65 67 69 71 72 72 71 69 67 65 64 63 61 60 58 58 60 64 70 76 83 88 91 94 95 92 85 74 68 69 74 76 76 75 75 75 73 68 61 57 57 59 58 56 53 51 50 48 47 46 46 47 48 49
44 42 40 39 38 37 36 36 35 35 36 37 40 43 46 49 52 54 56 57 59 59 60 59 59 58 58 58 59 61 63 64 66 67 69 72 73 73 71 69 67 65 64 62 61 59 58 57 59 63 68 74 81 87 91 93 94 91 85 75 69 70 74 75 75 75 75 74 72 68 63 58 58 60 59 57 55 53 52 50 49 48 48 48 48 49
43 41 39 37 36 35 33 32 32 32 33 35 37 39 42 45 47 50 52 53 55 56 56 56 56 56 56 57 59 61 63 65 66 68 70 72 73 73 72 69 67 65 63 62 60 59 57 57 57 61 66 72 79 85 90 91 91 89 85 76 70 70 73 74 74 74 74 72 69 66 63 58 58 60 60 59 57 56 55 53 52 51 50 49 49 49
42 39 37 35 33 32 31 30 29 30 31 32 34 36 38 41 43 45 47 49 50 51 52 53 53 53 54 55 58 61 63 65 67 69 71 72 73 73 72 69 67 65 63 61 60 58 57 56 56 59 64 70 78 84 88 89 89 88 85 77 71 70 72 74 74 74 73 71 68 66 63 58 58 60 61 61 60 59 58 57 56 54 53 52 51 50
40 37 35 33 32 31 29 28 27 27 28 29 31 33 35 37 39 41 43 44 46 47 48 49 50 50 52 55 58 61 64 66 68 69 71 73 73 73 71 69 67 64 62 61 59 58 57 56 56 58 62 68 75 81 86 88 88 88 87 80 74 70 72 74 74 73 72 70 69 67 63 57 57 62 64 64 63 62 61 60 59 58 56 55 53 52
37 35 34 32 31 29 28 27 26 26 26 27 28 30 31 33 35 37 38 40 41 42 44 45 47 49 51 54 58 61 64 66 68 69 71 72 73 73 71 69 66 64 62 60 59 58 56 55 55 57 61 66 72 79 84 87 87 87 88 84 77 72 73 75 74 73 71 70 70 68 63 57 58 63 66 66 65 64 63 61 60 60 59 57 56 54
35 33 32 31 30 29 28 26 25 25 24 25 25 26 28 29 31 32 34 35 37 38 40 42 45 47 51 54 58 61 64 66 67 69 70 72 72 72 70 68 66 63 62 60 59 57 56 55 55 56 60 65 71 77 82 86 88 88 88 85 80 76 75 76 75 73 70 68 66 65 61 58 60 66 69 67 65 64 63 62 61 61 60 58 56 55
32 30 30 30 29 28 27 26 25 24 23 23 23 23 24 26 27 29 30 32 33 35 38 40 43 47 50 54 58 61 63 65 67 68 70 71 71 71 69 67 65 63 61 60 58 57 56 55 55 56 59 64 69 75 80 85 88 90 89 86 82 78 77 78 77 73 66 62 61 60 59 58 62 68 69 67 65 64 63 62 62 60 59 57 56 54
29 28 28 29 29 29 27 26 24 23 22 21 20 20 21 22 24 25 27 28 30 33 36 40 43 47 51 54 57 60 62 64 66 68 69 70 70 70 68 66 64 62 60 59 57 56 55 54 55 56 59 64 68 74 79 83 87 89 90 87 83 80 80 81 78 72 63 59 58 58 57 57 62 67 67 65 64 63 63 62 61 60 58 56 54 53
29 27 26 27 28 28 28 26 24 22 20 19 18 17 18 19 20 22 24 26 29 32 35 39 43 47 51 54 57 59 61 63 65 67 68 69 69 68 67 65 63 61 59 58 56 55 54 54 54 56 59 63 68 73 78 82 86 88 89 88 84 82 81 81 78 71 62 59 59 59 57 54 58 64 64 63 63 63 63 62 61 59 57 54 53 51
29 27 25 24 25 26 27 27 25 22 19 17 15 15 15 16 18 19 22 24 28 31 35 39 43 47 50 53 55 58 60 62 64 66 67 68 67 67 65 64 62 60 58 56 55 54 54 54 54 55 58 62 67 72 77 81 85 88 89 88 85 82 81 80 76 69 63 62 62 62 59 55 56 61 62 62 63 63 63 62 60 58 55 53 51 50
29 27 25 23 23 23 25 26 24 22 18 15 13 12 12 13 15 18 20 24 27 31 35 39 42 46 48 51 54 56 59 61 63 64 65 66 66 65 64 63 61 59 57 55 54 54 54 53 53 54 57 61 66 71 76 80 84 87 89 88 85 82 79 77 73 69 66 65 65 64 61 57 56 59 63 62 62 63 63 62 60 57 54 51 50 49
28 27 25 23 21 21 22 23 22 20 17 14 11 10 10 12 14 17 20 23 27 31 35 38 41 44 46 49 52 54 57 59 61 62 63 64 64 63 63 62 60 58 56 54 54 53 53 53 52 53 56 60 64 70 75 79 83 87 88 87 84 80 77 73 70 69 69 70 69 66 62 57 56 60 64 64 63 62 62 60 58 55 52 49 48 47
28 27 25 23 20 18 18 19 19 18 16 12 9 8 9 11 14 17 20 23 27 30 34 37 39 42 44 47 49 52 54 57 59 60 61 62 62 62 62 61 59 57 55 54 54 53 53 52 52 53 56 60 64 69 74 78 83 86 87 86 82 78 74 70 69 70 72 73 71 68 63 57 56 59 65 67 65 63 61 59 56 52 49 47 46 46
29 28 26 24 20 18 16 15 16 16 14 10 8 7 9 11 14 17 20 24 27 29 32 35 37 39 42 45 47 49 52 54 56 58 59 60 61 62 61 60 58 55 54 54 54 53 52 51 52 53 56 60 64 69 73 78 83 85 86 84 80 76 71 68 69 72 74 74 72 67 61 56 55 59 66 68 67 63 60 56 53 49 47 45 45 45
30 29 27 24 21 18 15 13 12 12 11 8 7 8 10 12 15 18 21 24 26 29 31 33 35 38 40 43 45 47 49 51 53 55 57 59 61 61 60 58 56 55 54 55 54 53 52 51 52 53 56 60 64 69 74 78 82 85 84 82 78 74 69 68 70 73 75 74 71 66 59 55 55 60 67 68 66 62 57 53 50 47 45 44 44 45
30 28 26 23 21 18 15 13 11 10 9 8 8 10 11 14 16 18 21 23 26 28 30 32 34 37 39 42 44 45 47 49 51 53 56 58 60 60 59 57 55 54 54 54 54 53 51 51 52 54 56 60 65 70 75 79 82 84 83 81 77 72 69 69 71 73 73 72 69 63 57 54 56 62 66 67 64 59 54 50 47 45 44 44 44 45
Wind_Direction
291 290 289 287 285 283 282 280 278 276 274 272 270 268 267 265 264 263 262 260 258 257 256 255 255 255 254 252 250 248 247 245 244 243 242 242 241 241 242 243 243 244 243 243 243 242 242 241 240 240 239 240 240 240 240 240 240 240 240 240 240 241 241 241 241 241 241 241 242 244 246 249 251 253 253 254 254 254 254 253 251 250 250 251 252 252
291 290 289 287 285 283 282 280 278 276 274 272 270 268 266 264 263 262 261 260 258 256 255 254 254 254 254 253 251 250 248 246 244 243 242 241 241 240 241 241 242 243 242 242 242 242 242 241 240 240 239 239 240 240 239 239 239 239 239 239 239 239 240 240 241 241 241 241 242 243 245 247 248 250 251 252 253 254 254 254 254 254 253 252 251 250
290 289 288 286 285 283 282 280 278 276 274 272 270 268 266 264 262 261 260 259 258 256 255 253 253 253 253 253 252 251 249 247 246 244 242 241 241 240 239 240 241 241 241 241 241 241 241 240 240 239 239 239 239 239 239 238 238 238 238 238 237 238 239 240 240 241 241 241 241 242 243 244 246 247 248 249 250 251 252 253 254 254 252 251 248 246
289 288 287 285 284 282 281 279 278 276 274 272 271 268 266 264 262 260 259 258 257 256 254 253 252 251 251 251 251 251 250 248 246 245 243 242 241 240 239 239 239 240 241 240 240 240 240 239 239 238 238 238 238 238 238 237 237 237 237 237 236 236 237 238 239 240 241 241 241 241 241 242 244 245 245 245 245 246 248 251 252 250 247 245 243 240
289 287 286 284 282 281 280 278 277 275 274 272 270 269 267 265 263 261 259 258 256 255 254 253 251 250 250 249 250 250 249 248 247 245 244 242 241 240 239 238 238 239 240 239 239 238 238 238 238 238 237 237 238 238 237 237 236 236 237 236 236 236 236 237 238 239 240 241 240 240 240 241 243 244 244 243 241 242 244 246 247 243 239 238 237 236
288 286 285 283 281 280 278 277 275 274 273 271 270 268 267 265 263 261 260 258 256 255 254 252 251 250 249 248 248 248 248 248 247 246 244 242 241 240 239 238 237 237 239 239 238 237 237 237 237 237 236 236 237 237 237 236 236 236 236 236 236 236 235 235 237 238 240 240 239 239 239 241 243 244 243 241 239 238 239 242 241 236 232 233 234 234
288 286 284 282 280 279 277 276 274 273 271 270 269 268 266 265 263 262 260 258 257 255 254 252 251 249 248 248 247 247 247 247 247 246 244 243 241 240 239 237 236 236 237 238 238 237 236 237 237 236 236 236 236 236 236 236 236 235 236 236 236 236 235 235 235 237 238 239 238 238 239 242 244 244 243 240 237 235 236 237 235 230 226 228 231 233
287 286 283 281 279 278 276 275 273 272 270 269 268 267 265 264 263 262 260 259 257 256 254 252 251 249 248 247 247 246 246 246 246 245 244 243 241 240 238 237 236 235 235 236 237 237 236 236 236 236 235 235 235 236 236 236 236 235 235 236 236 236 235 234 234 235 236 237 237 237 239 242 244 244 243 239 236 234 234 233 230 226 222 224 228 231
286 284 283 280 278 277 275 274 273 271 270 268 267 266 265 263 262 261 260 259 258 256 254 253 251 249 247 246 246 246 245 245 245 245 244 243 241 240 238 237 236 235 234 234 235 236 236 235 235 235 235 235 235 235 235 236 236 235 235 235 235 235 235 234 233 234 235 235 235 236 238 242 244 244 242 238 235 233 231 229 226 223 221 222 225 229
286 284 282 280 278 276 274 273 272 271 269 268 267 265 264 263 262 260 259 258 257 256 255 253 251 249 247 246 245 245 245 244 244 243 243 243 241 240 238 237 236 234 233 232 233 234 235 234 234 234 234 234 234 234 235 235 235 235 235 234 234 234 234 233 233 232 233 233 233 234 237 240 242 241 239 236 233 231 228 225 223 221 221 222 224 227
285 283 281 279 277 275 274 272 271 270 268 267 266 265 264 263 261 260 259 257 256 255 254 253 251 249 247 245 244 243 243 243 243 242 242 242 241 240 238 237 235 234 233 232 231 232 233 233 233 232 232 233 233 233 234 234 235 235 235 235 234 234 233 233 232 232 232 232 232 233 236 239 240 238 235 233 230 228 226 223 221 221 221 223 225 228
284 282 280 278 276 275 273 272 271 269 268 267 266 265 264 262 261 260 259 257 255 254 253 252 251 249 247 245 243 242 242 242 242 241 241 241 240 239 238 236 235 234 233 231 230 230 231 232 232 231 231 231 232 232 233 234 234 235 235 234 234 233 232 232 232 231 231 230 230 232 235 238 237 234 231 229 228 226 224 222 221 221 222 223 226 228
283 281 279 277 276 274 273 271 270 269 268 266 265 264 263 262 261 260 259 257 255 254 253 252 250 248 247 245 243 242 241 241 241 240 240 240 239 239 238 236 235 234 233 231 230 229 229 230 230 230 230 230 230 231 232 232 233 234 234 233 233 232 231 231 231 231 230 229 229 231 235 236 235 231 228 227 226 225 223 222 222 222 222 223 225 227
282 280 279 277 275 274 273 271 270 269 267 266 265 264 262 261 260 259 258 257 256 254 253 251 250 248 246 244 243 242 240 240 240 239 239 239 238 238 237 236 235 233 232 231 230 228 228 228 229 229 229 229 229 230 230 231 231 231 231 231 231 231 231 230 230 229 229 227 228 230 234 235 232 228 225 225 225 225 224 223 223 222 222 222 223 224
282 280 278 277 275 274 273 271 270 269 267 265 264 263 262 261 260 259 258 257 255 254 253 251 250 248 246 244 242 241 240 239 239 238 238 237 237 237 237 236 235 233 232 231 230 228 227 226 227 228 228 228 228 228 229 229 228 228 228 229 230 230 230 229 229 228 227 225 226 230 234 234 230 225 223 223 224 225 224 224 224 222 221 220 221 222
282 280 278 277 275 274 273 271 270 268 267 265 264 262 261 260 259 258 257 256 255 254 253 251 250 248 245 243 241 240 239 238 238 237 236 236 236 236 236 236 235 234 232 231 230 228 226 225 225 226 227 227 226 226 226 226 226 226 227 228 230 230 230 229 228 227 225 223 225 229 233 232 228 223 221 221 222 223 223 223 223 222 220 219 220 222
282 280 279 277 276 274 273 271 270 268 266 265 263 262 260 259 258 257 256 255 255 253 252 251 250 248 245 243 241 239 238 238 237 236 235 235 235 235 235 235 235 234 232 231 230 228 226 224 223 223 225 225 225 225 224 224 224 225 227 229 231 231 230 229 227 225 223 222 224 228 232 231 227 221 219 219 220 221 221 222 222 221 219 218 219 221
282 280 279 277 276 275 273 271 270 268 266 264 263 261 259 258 257 256 256 255 254 253 252 250 249 248 245 243 240 238 237 237 236 235 234 233 233 233 234 234 234 234 232 231 229 228 226 224 222 221 222 224 224 223 222 222 223 225 228 230 231 231 229 227 225 223 221 220 222 226 230 231 226 221 218 218 219 219 219 220 220 219 218 217 217 219
282 280 278 277 276 275 273 271 270 268 266 264 262 260 259 257 256 255 255 254 253 252 251 250 249 247 245 243 240 237 236 236 235 234 233 231 231 231 231 232 233 233 232 231 229 228 226 224 222 220 220 222 223 223 222 221 222 223 224 226 226 226 224 223 222 221 219 219 221 225 229 230 226 221 218 218 218 218 218 219 219 218 216 215 215 218
281 279 277 276 275 274 272 271 269 268 266 264 262 260 258 257 255 255 254 253 252 251 250 250 248 246 245 242 240 237 235 235 234 233 232 230 229 228 229 230 232 232 232 231 229 227 225 223 221 219 218 219 221 221 221 221 221 220 221 221 220 219 218 218 218 217 217 217 219 223 228 230 226 221 218 218 218 217 217 218 217 215 213 213 214 217
280 278 276 275 273 272 271 269 268 267 265 264 262 260 258 257 255 254 253 252 252 251 250 249 248 246 244 242 239 237 235 234 233 232 231 229 227 226 227 228 229 231 231 230 229 227 225 223 220 218 216 217 219 220 220 220 218 218 219 220 218 215 214 214 215 215 215 216 218 222 227 229 226 221 217 217 217 217 216 215 213 213 213 213 215 217
279 277 276 274 272 270 269 268 266 265 264 263 262 260 258 257 255 254 253 252 251 250 249 248 247 245 243 241 239 236 234 233 232 231 230 228 226 225 224 225 227 228 229 229 228 226 224 222 220 217 215 216 217 219 219 218 217 217 219 219 216 213 211 212 213 214 214 215 217 221 226 229 226 220 216 215 216 217 216 214 214 214 215 215 215 216
278 277 275 273 271 269 268 266 265 263 262 262 261 260 258 257 255 254 252 251 250 249 248 247 246 244 243 240 238 235 233 232 231 230 229 228 225 223 223 223 224 226 227 227 226 225 223 222 219 216 215 215 216 217 218 217 217 217 218 216 213 210 209 211 212 213 213 214 216 220 225 228 225 220 216 215 216 217 218 219 221 222 220 217 215 215
279 277 275 272 270 268 267 265 263 262 261 260 259 258 257 256 255 254 252 251 250 249 248 247 246 244 242 240 237 235 233 231 230 230 229 227 224 222 221 222 223 224 225 226 225 224 222 221 219 216 215 215 216 217 217 217 216 216 216 213 209 207 208 210 211 212 212 213 215 219 224 226 224 219 216 215 216 218 220 224 228 228 222 217 215 214
283 279 276 273 270 268 266 264 263 261 259 258 257 257 256 255 254 253 252 251 250 249 248 247 245 244 241 239 236 234 232 230 229 229 228 226 223 221 219 220 221 223 224 224 224 223 222 220 218 217 215 215 216 216 216 216 216 215 212 209 206 205 207 210 211 211 211 211 214 218 223 224 221 218 217 217 216 218 221 227 230 228 221 216 213 213
289 285 280 276 272 269 266 264 262 260 259 257 256 255 255 254 253 252 251 250 249 248 247 246 245 242 240 238 235 233 231 229 228 228 227 225 222 219 218 218 220 222 223 223 223 222 221 219 218 217 216 216 216 216 216 216 215 213 210 206 204 205 208 210 211 211 211 211 212 216 219 220 219 218 218 217 216 217 221 226 228 225 219 214 212 212
296 292 287 282 277 273 268 265 262 260 258 257 255 255 254 253 252 251 250 248 248 247 247 245 244 242 239 237 234 232 229 228 227 227 226 224 222 219 217 217 219 221 222 222 222 222 220 219 217 216 216 215 216 216 216 216 214 212 208 205 203 204 208 211 213 213 213 212 212 214 217 217 218 220 220 217 215 216 220 223 224 221 216 212 211 211
302 298 294 289 284 279 273 268 264 261 258 256 255 254 253 252 251 250 249 247 247 246 246 245 243 241 239 236 233 230 228 227 226 225 225 224 221 219 216 216 217 219 220 221 222 222 221 219 217 216 215 215 215 216 216 215 214 211 208 204 203 204 207 211 214 216 215 214 213 214 216 218 220 222 220 216 214 215 218 220 220 217 212 210 210 210
308 305 300 296 291 285 279 273 268 263 259 256 254 253 252 251 251 250 248 247 246 245 245 244 242 241 238 235 231 229 226 225 224 224 223 223 221 218 215 214 215 217 219 220 221 221 221 220 218 216 215 215 215 215 215 215 214 212 209 206 204 204 207 211 215 217 217 215 214 214 216 220 223 222 216 211 210 211 213 216 215 213 209 208 208 208
313 309 306 302 297 292 286 279 273 267 262 258 255 252 251 250 250 249 248 247 245 245 244 243 241 240 237 234 231 227 225 223 222 222 222 222 220 217 214 214 214 216 217 219 220 221 221 220 218 216 215 214 214 215 215 215 215 213 211 208 206 205 207 211 215 217 216 214 213 214 218 222 222 217 209 206 205 207 208 210 210 208 207 206 207 207
314 311 308 305 301 296 291 284 278 272 265 260 256 253 251 249 249 248 247 246 245 244 243 242 240 238 236 233 230 226 223 220 220 220 221 221 219 216 213 213 214 215 216 218 220 221 221 220 218 216 214 214 214 214 215 215 215 215 213 211 208 206 207 210 213 215 214 213 213 215 219 220 216 209 204 202 202 203 204 205 206 205 205 206 207 207
313 311 309 306 303 299 293 288 282 276 269 264 259 255 252 249 248 247 246 245 244 243 242 241 239 237 235 232 228 224 220 217 217 218 220 220 218 215 212 212 213 214 216 217 219 220 220 219 218 216 214 214 213 213 214 215 216 215 214 213 210 208 207 208 210 212 212 212 213 216 219 216 210 204 201 200 200 201 202 203 204 204 205 207 208 208
313 310 308 306 303 299 295 290 284 278 272 266 261 257 253 250 248 246 245 244 243 242 241 240 238 236 233 230 226 222 218 215 215 216 218 218 216 213 211 211 212 214 215 217 218 219 220 219 218 216 215 213 213 212 213 214 216 216 215 213 211 208 207 207 208 209 210 211 213 216 217 213 207 202 200 198 198 200 201 202 203 204 205 207 209 209
313 310 307 304 302 299 295 291 286 279 273 268 263 258 254 251 248 246 244 243 242 241 240 239 237 235 232 228 224 220 216 213 213 214 215 216 214 211 209 209 211 212 214 216 217 218 219 219 218 216 215 213 212 212 213 215 216 216 214 213 210 208 206 206 206 207 208 210 213 216 217 211 205 202 200 198 197 198 200 201 202 203 205 208 209 210
315 312 308 304 301 298 295 291 286 281 274 269 264 259 255 251 248 246 243 242 240 239 239 237 235 233 230 226 222 218 214 211 211 212 213 213 212 210 208 208 209 211 213 215 216 217 218 218 218 216 215 214 212 212 213 215 216 216 214 212 209 207 205 204 204 206 208 210 214 217 217 211 205 202 200 197 196 197 199 200 201 202 205 207 209 210
318 314 310 306 303 299 296 292 287 282 276 270 264 260 255 252 249 246 243 241 239 238 237 236 234 231 228 224 219 215 211 209 209 210 211 211 210 208 207 207 208 210 212 214 214 215 217 217 217 216 215 214 213 212 213 215 216 216 215 212 209 207 205 203 203 205 207 210 214 217 217 211 205 201 200 197 196 196 198 199 200 201 204 207 209 211
321 317 314 310 306 302 298 294 289 283 277 271 265 260 256 252 249 246 243 241 239 237 236 234 232 229 225 221 217 213 210 208 208 208 209 209 208 206 205 205 206 209 211 212 213 214 215 216 217 216 215 213 213 213 214 216 217 217 216 213 209 206 204 203 203 204 206 209 213 217 218 213 206 201 199 197 196 196 197 198 199 201 203 206 209 211
324 321 317 314 310 306 302 297 292 285 278 272 266 261 256 252 249 246 243 240 238 236 234 232 230 226 222 218 214 210 208 207 206 207 207 207 206 205 204 204 205 207 210 211 212 213 214 216 216 216 215 213 212 212 213 215 217 217 216 213 209 206 203 202 202 203 205 207 212 217 219 215 207 200 198 197 196 196 198 199 200 201 202 205 208 210
326 324 321 318 314 311 307 302 295 288 281 274 268 262 257 253 249 246 243 240 237 235 232 230 227 223 219 214 211 208 206 205 205 205 205 205 204 204 203 203 204 206 209 210 211 212 214 215 216 216 215 213 212 212 213 214 215 216 216 214 210 206 203 202 202 203 204 206 211 216 219 215 206 200 198 197 196 196 198 199 200 201 202 204 206 208
328 327 325 322 319 315 311 306 299 292 284 277 270 264 259 254 250 246 242 239 236 233 230 226 223 219 214 211 208 206 205 204 203 203 203 203 203 202 202 203 204 206 208 209 211 212 213 215 216 216 215 213 212 211 212 213 214 215 215 214 211 207 204 202 201 202 204 208 213 217 218 213 205 200 198 198 197 197 198 199 201 203 204 204 205 207
331 331 330 327 324 320 315 310 304 296 289 281 274 267 261 255 250 245 241 237 233 229 226 222 218 214 211 208 206 204 203 202 201 201 201 201 201 201 202 202 203 205 207 209 210 211 212 214 215 216 215 214 212 211 211 212 213 214 213 212 210 207 204 202 201 203 206 211 215 217 216 212 205 200 198 198 198 198 198 200 202 204 205 206 207 208
335 336 335 333 330 325 320 315 308 301 294 285 277 269 262 255 249 243 238 233 229 224 220 217 213 210 207 205 203 202 201 200 200 200 200 200 200 201 201 202 203 205 207 209 210 211 212 213 214 215 215 214 212 211 210 211 211 212 211 211 209 207 204 203 202 204 209 213 215 216 215 211 205 200 199 198 198 198 199 201 202 204 206 207 208 209
340 341 340 339 336 332 326 320 314 307 299 291 282 272 263 255 247 241 234 229 223 218 215 212 209 206 203 202 201 200 199 198 198 198 199 199 199 200 201 202 203 205 206 208 209 210 211 212 214 215 215 213 212 211 210 210 210 210 210 209 208 207 205 204 204 205 209 212 214 215 215 211 205 200 199 199 199 199 200 201 203 204 206 208 209 210
343 345 345 344 341 337 332 327 320 314 306 297 287 275 264 254 244 236 229 222 217 212 209 207 205 202 200 199 198 198 197 197 197 197 197 198 199 200 201 202 203 205 206 208 209 209 210 212 214 215 215 213 212 211 210 210 210 209 208 208 208 207 206 205 205 207 209 211 213 215 215 210 204 200 200 200 200 200 201 201 203 204 206 208 210 211
342 346 348 348 345 342 338 333 326 320 312 303 291 278 263 250 239 230 221 215 210 207 205 203 201 200 198 197 196 196 195 195 195 196 197 197 198 199 200 202 203 205 206 207 208 208 209 212 214 215 214 213 212 211 211 210 209 208 208 208 208 208 207 206 206 208 209 210 212 214 215 211 205 201 200 200 200 200 201 202 203 204 205 207 210 212
340 344 347 349 349 346 342 337 331 324 317 307 294 278 260 244 231 221 213 208 204 202 201 200 198 197 195 194 194 194 194 194 195 195 196 197 197 199 200 201 203 204 205 206 207 208 210 212 214 214 214 213 212 211 211 210 209 208 208 208 209 209 209 208 208 208 209 210 211 214 215 213 209 204 202 201 201 201 201 202 203 204 205 207 210 213
337 340 343 345 347 348 345 339 333 326 319 309 294 274 252 234 221 211 205 202 199 198 198 197 196 194 193 192 192 193 193 193 194 195 196 196 197 198 199 201 202 203 204 205 206 208 210 212 213 214 214 213 212 211 210 209 208 208 208 208 209 210 210 209 208 208 208 209 211 213 215 215 212 208 204 203 202 202 202 203 204 204 205 207 210 213
334 336 338 338 339 341 342 338 332 325 317 305 286 261 238 221 210 203 199 197 196 196 195 195 193 192 191 191 191 192 192 193 194 195 196 196 197 197 199 200 201 202 203 204 206 208 210 212 213 213 213 212 211 211 210 209 208 208 208 209 210 210 210 209 208 207 208 209 211 212 214 216 214 209 205 204 203 203 203 203 203 204 206 208 211 214
332 334 334 333 331 330 330 329 324 318 309 296 272 243 223 209 201 197 195 194 193 193 193 192 191 190 189 189 190 191 192 194 195 196 196 196 196 197 198 199 200 200 202 204 207 208 210 211 212 213 212 211 210 209 208 208 207 207 208 209 209 210 209 208 207 207 208 209 211 212 214 216 213 208 204 203 203 203 203 203 204 205 207 209 212 215
331 331 331 330 327 322 316 311 306 300 292 275 249 224 210 201 196 194 193 192 192 192 191 190 189 188 188 189 190 191 193 195 196 197 197 197 196 197 197 198 199 200 202 204 207 209 210 211 213 212 212 210 209 208 207 207 207 207 208 208 209 209 208 207 206 207 209 210 211 212 214 215 211 206 203 202 202 203 203 204 205 206 208 210 213 215
330 330 329 327 323 317 308 297 286 276 264 246 225 209 200 195 193 192 192 192 192 192 192 191 190 189 189 190 191 193 194 196 198 198 198 197 197 196 196 197 198 200 203 206 207 209 211 212 213 212 211 209 207 206 205 206 206 207 207 208 208 207 207 206 207 208 209 210 211 213 215 213 207 202 201 201 201 202 203 204 206 207 209 211 213 215
Height
5582 5581 5580 5579 5578 5577 5576 5577 5578 5577 5576 5577 5577 5577 5576 5575 5575 5574 5574 5574 5574 5574 5575 5575 5576 5577 5579 5581 5583 5586 5588 5591 5594 5596 5599 5601 5604 5608 5611 5613 5616 5619 5623 5627 5631 5634 5636 5639 5642 5645 5648 5652 5654 5657 5660 5662 5665 5668 5669 5672 5674 5676 5679 5683 5685 5686 5687 5688 5689 5690 5691 5692 5693 5694 5694 5695 5696 5697 5699 5700 5701 5703 5704 5705 5707 5707
5573 5571 5570 5569 5568 5567 5565 5567 5567 5567 5566 5567 5567 5568 5568 5567 5567 5567 5567 5567 5567 5568 5568 5569 5569 5570 5572 5574 5576 5578 5581 5583 5586 5589 5591 5594 5597 5600 5604 5606 5609 5612 5616 5620 5624 5628 5630 5634 5636 5639 5642 5646 5649 5651 5654 5657 5660 5663 5664 5667 5669 5671 5674 5678 5681 5682 5683 5683 5684 5685 5686 5688 5689 5690 5691 5691 5692 5693 5694 5696 5697 5699 5700 5702 5703 5704
5564 5562 5561 5560 5558 5556 5555 5556 5557 5557 5556 5556 5557 5558 5559 5559 5558 5558 5559 5559 5559 5560 5561 5562 5563 5564 5565 5567 5569 5571 5573 5576 5578 5581 5584 5587 5589 5592 5596 5599 5602 5605 5609 5613 5617 5621 5624 5627 5630 5633 5636 5640 5643 5645 5648 5651 5654 5657 5661 5662 5663 5665 5669 5672 5675 5677 5677 5678 5679 5681 5682 5684 5685 5686 5687 5687 5688 5689 5690 5692 5694 5695 5697 5699 5700 5701
5555 5553 5551 5550 5549 5547 5546 5546 5546 5546 5546 5546 5546 5548 5549 5549 5549 5550 5550 5551 5552 5552 5553 5554 5555 5557 5559 5560 5562 5563 5566 5568 5571 5573 5576 5579 5582 5585 5588 5592 5595 5598 5601 5605 5610 5614 5618 5621 5624 5627 5630 5634 5637 5639 5642 5645 5648 5651 5654 5657 5658 5660 5663 5667 5670 5672 5673 5673 5674 5677 5679 5680 5681 5682 5683 5683 5684 5685 5686 5688 5690 5692 5694 5697 5698 5698
5546 5543 5541 5540 5539 5538 5537 5537 5536 5535 5535 5535 5536 5537 5538 5539 5539 5540 5542 5543 5544 5544 5545 5546 5547 5549 5551 5553 5554 5556 5558 5560 5563 5565 5568 5571 5574 5577 5580 5584 5588 5591 5594 5597 5602 5606 5610 5614 5618 5621 5624 5628 5630 5633 5636 5639 5642 5645 5648 5650 5653 5655 5658 5662 5665 5667 5669 5669 5670 5672 5674 5676 5677 5678 5678 5679 5679 5681 5683 5684 5686 5689 5692 5694 5694 5694
5536 5534 5532 5530 5529 5528 5528 5528 5527 5526 5526 5525 5526 5527 5528 5528 5529 5531 5532 5534 5535 5536 5537 5538 5539 5541 5543 5545 5547 5549 5551 5553 5555 5558 5560 5564 5567 5570 5573 5576 5579 5583 5586 5590 5594 5599 5603 5607 5611 5614 5618 5621 5624 5627 5630 5634 5637 5640 5643 5645 5649 5652 5655 5657 5660 5663 5665 5666 5666 5668 5670 5672 5673 5674 5674 5675 5675 5677 5679 5681 5683 5685 5689 5690 5691 5691
5524 5524 5522 5520 5518 5517 5517 5518 5518 5517 5517 5516 5516 5516 5517 5518 5519 5521 5522 5524 5526 5528 5529 5530 5532 5534 5535 5537 5540 5542 5545 5547 5548 5550 5553 5556 5559 5562 5566 5569 5572 5576 5580 5583 5587 5591 5596 5600 5604 5608 5611 5615 5618 5621 5624 5628 5631 5634 5637 5640 5644 5648 5650 5652 5654 5658 5661 5662 5663 5664 5666 5668 5669 5669 5670 5671 5672 5673 5675 5677 5679 5681 5684 5687 5688 5687
5512 5512 5512 5510 5508 5507 5506 5507 5508 5508 5508 5506 5506 5506 5508 5509 5510 5511 5513 5514 5517 5519 5520 5522 5524 5526 5528 5530 5533 5535 5538 5540 5541 5543 5545 5548 5551 5555 5558 5562 5565 5569 5573 5576 5580 5584 5589 5593 5597 5601 5605 5609 5612 5615 5618 5622 5626 5629 5632 5635 5638 5642 5645 5647 5649 5653 5656 5659 5660 5661 5662 5663 5664 5665 5666 5667 5668 5669 5671 5673 5675 5677 5679 5683 5685 5684
5500 5500 5500 5499 5498 5497 5495 5496 5497 5498 5498 5497 5496 5496 5498 5499 5500 5502 5504 5505 5507 5509 5511 5513 5515 5517 5520 5523 5525 5528 5530 5532 5534 5536 5538 5541 5544 5547 5551 5554 5558 5561 5565 5569 5573 5576 5580 5586 5590 5594 5599 5602 5606 5609 5612 5616 5621 5624 5627 5630 5633 5636 5640 5644 5646 5648 5652 5655 5658 5659 5659 5659 5660 5661 5663 5664 5664 5665 5667 5669 5671 5673 5674 5677 5679 5680
5489 5488 5488 5488 5488 5487 5485 5485 5486 5488 5489 5487 5486 5486 5488 5489 5491 5493 5494 5496 5498 5500 5502 5504 5506 5509 5512 5515 5518 5520 5522 5524 5527 5529 5531 5534 5536 5539 5544 5547 5550 5554 5557 5561 5565 5569 5573 5578 5583 5588 5592 5596 5599 5603 5606 5610 5614 5619 5622 5625 5629 5632 5636 5641 5643 5644 5647 5650 5654 5656 5655 5657 5658 5658 5659 5659 5660 5661 5663 5665 5667 5668 5669 5671 5673 5674
5478 5477 5476 5476 5476 5476 5476 5475 5476 5478 5479 5478 5477 5477 5478 5480 5481 5482 5484 5485 5488 5491 5493 5495 5497 5500 5503 5507 5509 5512 5515 5517 5519 5521 5524 5526 5529 5533 5536 5540 5543 5546 5550 5553 5558 5562 5566 5571 5576 5580 5585 5589 5593 5597 5600 5604 5608 5613 5617 5620 5624 5627 5631 5635 5638 5641 5644 5647 5649 5650 5651 5652 5654 5654 5655 5655 5656 5657 5659 5661 5663 5664 5665 5666 5668 5669
5467 5466 5465 5464 5464 5465 5466 5466 5466 5468 5469 5468 5468 5467 5469 5470 5472 5472 5473 5474 5478 5482 5484 5486 5488 5491 5494 5497 5500 5504 5507 5509 5511 5514 5516 5519 5522 5525 5529 5532 5536 5539 5543 5546 5550 5554 5559 5564 5568 5573 5578 5582 5587 5591 5595 5599 5602 5607 5611 5615 5619 5623 5626 5630 5633 5636 5639 5642 5643 5644 5647 5648 5649 5650 5650 5650 5652 5654 5655 5657 5658 5659 5661 5662 5664 5666
5456 5455 5454 5453 5453 5454 5455 5456 5457 5457 5458 5458 5458 5458 5459 5461 5462 5463 5463 5464 5468 5472 5475 5477 5479 5482 5485 5489 5492 5495 5499 5501 5503 5506 5509 5512 5515 5518 5521 5525 5529 5532 5536 5539 5543 5547 5552 5557 5561 5566 5571 5575 5580 5584 5589 5593 5597 5601 5605 5609 5613 5617 5620 5624 5628 5630 5634 5637 5639 5640 5642 5643 5644 5645 5646 5647 5648 5649 5652 5653 5654 5656 5657 5659 5660 5662
5445 5444 5443 5442 5442 5444 5445 5446 5447 5447 5448 5449 5449 5449 5450 5451 5453 5454 5454 5455 5458 5462 5465 5467 5469 5473 5477 5480 5484 5488 5491 5494 5496 5499 5502 5504 5508 5511 5514 5518 5521 5525 5529 5532 5536 5540 5545 5551 5555 5559 5564 5569 5574 5579 5583 5587 5592 5596 5600 5604 5608 5611 5615 5620 5623 5626 5628 5631 5634 5636 5637 5638 5639 5641 5642 5645 5645 5646 5648 5650 5651 5652 5654 5655 5657 5659
5435 5434 5433 5432 5432 5433 5435 5436 5436 5437 5438 5439 5440 5440 5441 5442 5443 5444 5445 5446 5449 5452 5455 5457 5459 5463 5468 5472 5476 5480 5484 5487 5489 5492 5494 5497 5501 5504 5509 5511 5514 5518 5522 5526 5529 5533 5539 5544 5549 5553 5558 5563 5568 5573 5578 5582 5587 5591 5596 5599 5603 5606 5610 5614 5618 5622 5626 5627 5629 5631 5632 5634 5635 5636 5638 5642 5644 5644 5645 5647 5648 5649 5650 5652 5654 5655
5426 5424 5423 5422 5423 5424 5425 5426 5427 5427 5428 5429 5431 5431 5432 5432 5433 5435 5436 5437 5439 5443 5446 5448 5450 5454 5458 5464 5468 5472 5476 5479 5482 5484 5487 5490 5494 5498 5503 5507 5509 5511 5515 5519 5522 5527 5532 5537 5542 5546 5551 5556 5562 5567 5573 5578 5583 5587 5590 5594 5598 5601 5605 5609 5613 5617 5620 5621 5624 5626 5628 5630 5631 5632 5634 5639 5642 5643 5644 5644 5644 5646 5647 5649 5650 5652
5416 5415 5413 5413 5413 5414 5416 5417 5418 5418 5418 5420 5421 5422 5422 5423 5424 5425 5428 5429 5430 5434 5437 5439 5441 5444 5448 5454 5460 5465 5468 5470 5473 5475 5479 5483 5487 5491 5496 5501 5503 5504 5508 5512 5516 5520 5525 5530 5535 5540 5545 5550 5556 5562 5568 5572 5577 5581 5584 5588 5593 5597 5600 5604 5608 5614 5619 5619 5619 5622 5624 5625 5627 5629 5631 5634 5637 5639 5639 5639 5641 5642 5644 5646 5647 5649
5406 5405 5405 5404 5404 5404 5406 5408 5408 5408 5409 5410 5411 5412 5413 5413 5415 5416 5418 5420 5422 5424 5427 5429 5432 5435 5439 5445 5452 5457 5460 5463 5465 5469 5472 5475 5479 5484 5489 5494 5496 5498 5502 5506 5509 5514 5519 5524 5528 5534 5539 5545 5551 5556 5561 5566 5571 5576 5579 5584 5588 5592 5595 5599 5604 5609 5612 5612 5614 5617 5619 5621 5623 5625 5628 5630 5633 5635 5635 5636 5637 5639 5641 5642 5644 5646
5396 5396 5396 5395 5395 5395 5397 5398 5399 5400 5401 5401 5401 5402 5403 5404 5406 5408 5409 5411 5413 5416 5418 5420 5423 5426 5431 5436 5442 5449 5454 5456 5457 5460 5464 5467 5472 5477 5483 5487 5490 5494 5497 5500 5503 5508 5513 5517 5522 5528 5533 5539 5545 5550 5555 5560 5565 5569 5574 5579 5584 5588 5591 5595 5599 5602 5605 5607 5609 5612 5614 5617 5619 5621 5624 5627 5629 5631 5631 5632 5634 5635 5637 5639 5641 5643
5384 5385 5387 5387 5386 5386 5386 5388 5390 5391 5392 5392 5392 5393 5393 5395 5397 5399 5400 5402 5405 5407 5409 5411 5414 5418 5423 5428 5434 5440 5446 5448 5449 5452 5455 5458 5464 5470 5475 5479 5484 5488 5489 5493 5497 5502 5507 5511 5516 5522 5527 5533 5539 5544 5549 5554 5559 5564 5569 5573 5577 5581 5585 5589 5593 5596 5598 5601 5604 5607 5609 5612 5614 5616 5620 5623 5625 5626 5627 5629 5630 5632 5634 5636 5638 5639
5373 5374 5376 5378 5377 5376 5376 5378 5381 5383 5383 5383 5383 5384 5384 5386 5389 5391 5392 5394 5396 5398 5401 5403 5406 5410 5415 5420 5425 5431 5437 5439 5441 5444 5447 5451 5456 5462 5468 5472 5476 5480 5483 5487 5492 5497 5501 5505 5510 5515 5521 5527 5532 5537 5542 5548 5552 5557 5562 5567 5571 5575 5579 5583 5586 5588 5591 5595 5598 5601 5604 5607 5609 5611 5614 5618 5622 5625 5627 5627 5627 5629 5631 5633 5634 5636
5361 5362 5364 5367 5367 5366 5366 5369 5372 5374 5374 5374 5374 5374 5376 5378 5380 5382 5384 5386 5388 5390 5392 5394 5398 5402 5407 5412 5417 5423 5429 5432 5433 5435 5439 5444 5449 5455 5462 5467 5470 5474 5478 5481 5486 5492 5496 5500 5504 5509 5515 5521 5526 5531 5536 5540 5544 5549 5556 5561 5565 5569 5573 5577 5580 5583 5585 5589 5593 5596 5600 5602 5604 5607 5610 5614 5619 5622 5624 5624 5625 5626 5628 5630 5631 5633
5351 5350 5352 5354 5355 5356 5357 5359 5361 5364 5365 5366 5366 5366 5368 5370 5372 5373 5375 5378 5380 5381 5383 5386 5390 5394 5400 5404 5409 5415 5421 5424 5426 5428 5433 5437 5442 5449 5457 5461 5465 5469 5472 5475 5480 5486 5491 5494 5498 5504 5509 5514 5520 5525 5530 5533 5537 5543 5549 5554 5558 5562 5565 5570 5574 5577 5580 5584 5588 5592 5595 5598 5600 5602 5605 5609 5615 5619 5621 5620 5621 5623 5625 5626 5628 5629
5342 5341 5341 5343 5344 5345 5346 5349 5351 5353 5355 5357 5357 5358 5360 5362 5364 5365 5367 5369 5371 5373 5376 5379 5383 5388 5392 5397 5402 5408 5413 5416 5419 5422 5426 5429 5435 5444 5452 5456 5459 5462 5466 5469 5475 5480 5484 5488 5492 5498 5504 5509 5513 5518 5523 5525 5529 5536 5543 5547 5551 5554 5558 5562 5567 5572 5576 5580 5584 5588 5591 5593 5596 5599 5601 5605 5610 5615 5619 5618 5617 5618 5620 5622 5624 5625
5334 5333 5332 5332 5333 5335 5336 5338 5340 5343 5345 5347 5348 5349 5351 5353 5355 5356 5358 5361 5364 5366 5369 5372 5375 5379 5384 5389 5395 5400 5405 5410 5414 5416 5419 5423 5429 5438 5445 5450 5453 5456 5459 5464 5469 5474 5479 5483 5488 5494 5498 5503 5507 5511 5515 5519 5524 5530 5536 5540 5544 5548 5551 5555 5560 5566 5571 5576 5580 5583 5586 5589 5592 5595 5598 5601 5605 5610 5614 5613 5613 5613 5615 5617 5619 5621
5327 5325 5324 5323 5324 5325 5326 5328 5330 5333 5335 5337 5339 5341 5343 5344 5346 5348 5350 5353 5356 5359 5361 5364 5367 5370 5376 5383 5388 5392 5398 5404 5407 5409 5412 5417 5424 5431 5438 5444 5447 5450 5454 5459 5464 5469 5473 5476 5482 5488 5493 5497 5500 5505 5510 5514 5519 5524 5529 5533 5537 5542 5546 5549 5554 5559 5565 5571 5575 5578 5581 5584 5588 5591 5594 5597 5601 5606 5610 5610 5609 5609 5610 5613 5615 5618
5321 5318 5316 5315 5315 5315 5316 5318 5320 5323 5325 5328 5330 5332 5334 5336 5337 5338 5341 5344 5348 5352 5354 5356 5359 5363 5370 5376 5380 5385 5391 5397 5400 5403 5407 5411 5417 5424 5431 5437 5442 5446 5449 5454 5459 5463 5467 5470 5474 5480 5485 5490 5494 5499 5504 5509 5513 5518 5523 5527 5532 5536 5540 5544 5549 5554 5560 5565 5570 5574 5577 5580 5583 5586 5589 5592 5596 5602 5606 5604 5604 5604 5606 5609 5611 5614
5316 5314 5311 5309 5308 5307 5307 5309 5310 5313 5316 5319 5321 5323 5325 5327 5328 5329 5331 5336 5341 5345 5346 5348 5351 5357 5363 5368 5373 5378 5385 5390 5394 5397 5401 5405 5410 5417 5424 5432 5437 5441 5445 5450 5454 5458 5462 5466 5470 5475 5480 5485 5489 5494 5498 5503 5507 5511 5516 5521 5526 5531 5535 5539 5544 5550 5555 5561 5566 5570 5573 5576 5579 5581 5583 5587 5591 5597 5601 5601 5601 5601 5602 5604 5607 5610
5313 5309 5307 5304 5303 5301 5300 5300 5301 5303 5306 5309 5312 5314 5315 5317 5318 5319 5322 5329 5335 5337 5337 5340 5344 5350 5355 5360 5366 5372 5378 5382 5387 5392 5397 5400 5404 5411 5420 5427 5432 5436 5441 5445 5449 5453 5457 5460 5464 5470 5475 5480 5484 5489 5493 5498 5502 5505 5509 5515 5521 5526 5530 5534 5540 5546 5552 5557 5561 5565 5569 5572 5573 5574 5578 5582 5586 5591 5596 5599 5599 5599 5599 5601 5603 5606
5309 5306 5303 5301 5299 5297 5295 5294 5294 5295 5297 5299 5302 5304 5306 5308 5309 5312 5316 5323 5327 5328 5329 5333 5338 5343 5348 5354 5359 5364 5369 5375 5382 5388 5392 5394 5398 5406 5416 5422 5426 5430 5436 5441 5445 5448 5450 5453 5458 5464 5469 5474 5479 5484 5488 5493 5496 5499 5503 5509 5515 5521 5526 5530 5535 5542 5548 5553 5557 5560 5564 5566 5568 5569 5573 5577 5581 5586 5590 5594 5596 5597 5597 5598 5600 5603
5307 5304 5300 5298 5295 5293 5291 5289 5288 5288 5289 5290 5293 5295 5297 5299 5302 5305 5309 5314 5318 5319 5322 5327 5332 5336 5341 5346 5351 5356 5361 5369 5377 5383 5386 5388 5393 5401 5411 5416 5420 5425 5431 5436 5440 5443 5444 5448 5454 5459 5464 5469 5474 5479 5483 5486 5489 5493 5497 5504 5511 5517 5521 5526 5531 5538 5544 5548 5552 5555 5559 5561 5563 5565 5568 5573 5577 5581 5585 5588 5590 5592 5593 5594 5597 5599
5304 5301 5298 5294 5292 5289 5287 5285 5284 5283 5283 5284 5285 5287 5289 5292 5294 5298 5302 5305 5309 5312 5316 5320 5324 5329 5334 5338 5343 5348 5355 5365 5373 5377 5379 5382 5388 5397 5405 5410 5415 5421 5426 5430 5434 5438 5441 5444 5449 5454 5460 5465 5469 5474 5478 5481 5483 5487 5492 5500 5507 5513 5518 5522 5528 5534 5539 5544 5547 5550 5554 5557 5559 5561 5564 5568 5573 5577 5581 5584 5586 5588 5589 5591 5593 5596
5301 5297 5294 5291 5288 5285 5283 5281 5279 5279 5277 5277 5278 5280 5282 5284 5287 5290 5294 5298 5301 5305 5309 5313 5317 5322 5327 5331 5336 5342 5350 5360 5367 5370 5373 5376 5383 5391 5399 5404 5409 5415 5420 5425 5430 5434 5438 5441 5445 5450 5455 5459 5464 5469 5473 5476 5478 5482 5488 5496 5504 5509 5514 5519 5524 5529 5534 5539 5542 5546 5550 5553 5555 5557 5560 5564 5568 5573 5577 5580 5583 5584 5586 5587 5590 5593
5297 5294 5290 5287 5284 5281 5279 5277 5275 5274 5272 5272 5272 5273 5275 5277 5280 5284 5287 5290 5294 5298 5302 5306 5310 5315 5320 5325 5330 5337 5345 5354 5360 5364 5367 5371 5378 5385 5392 5398 5404 5409 5415 5420 5425 5430 5434 5438 5441 5446 5450 5454 5459 5464 5468 5470 5473 5477 5484 5492 5499 5505 5510 5514 5519 5524 5529 5534 5538 5542 5546 5549 5551 5553 5556 5560 5564 5568 5572 5576 5579 5581 5583 5585 5587 5590
5292 5289 5286 5283 5280 5277 5275 5273 5271 5269 5268 5267 5267 5268 5269 5271 5274 5277 5280 5284 5287 5291 5295 5300 5304 5309 5314 5319 5325 5331 5339 5348 5354 5359 5361 5366 5372 5380 5387 5392 5398 5404 5410 5414 5419 5425 5430 5434 5437 5440 5445 5450 5454 5459 5463 5465 5468 5473 5481 5488 5495 5500 5504 5509 5514 5519 5524 5529 5533 5537 5541 5544 5547 5549 5552 5555 5559 5562 5566 5571 5575 5578 5580 5583 5585 5587
5288 5285 5282 5279 5276 5273 5271 5269 5267 5265 5264 5263 5263 5263 5264 5265 5268 5270 5274 5277 5281 5285 5289 5294 5299 5304 5309 5314 5319 5326 5334 5342 5348 5352 5355 5360 5367 5374 5381 5386 5393 5399 5405 5410 5415 5420 5425 5429 5432 5436 5440 5445 5449 5453 5458 5460 5464 5470 5478 5484 5490 5495 5500 5504 5510 5515 5520 5524 5528 5531 5534 5539 5542 5544 5546 5550 5554 5558 5561 5566 5570 5574 5578 5580 5582 5584
5284 5281 5278 5275 5272 5269 5267 5265 5264 5262 5260 5259 5259 5259 5260 5261 5263 5266 5269 5272 5276 5280 5284 5289 5293 5299 5304 5309 5315 5322 5329 5336 5342 5346 5349 5355 5362 5369 5375 5382 5389 5395 5400 5405 5411 5416 5421 5425 5429 5433 5437 5440 5443 5447 5452 5456 5462 5468 5474 5479 5485 5491 5496 5501 5507 5513 5517 5520 5523 5525 5529 5535 5538 5540 5543 5547 5551 5555 5559 5562 5565 5570 5574 5577 5579 5581
5281 5278 5275 5272 5269 5266 5264 5262 5260 5259 5258 5256 5256 5256 5256 5257 5259 5262 5264 5268 5271 5275 5279 5284 5289 5294 5299 5305 5311 5317 5324 5330 5335 5339 5345 5351 5358 5364 5371 5378 5385 5391 5395 5401 5407 5412 5417 5420 5424 5428 5432 5435 5439 5443 5447 5452 5458 5464 5468 5474 5481 5487 5492 5498 5503 5508 5512 5515 5519 5522 5526 5531 5535 5537 5540 5543 5547 5552 5555 5559 5562 5565 5569 5574 5576 5579
5280 5276 5273 5269 5266 5264 5261 5259 5258 5257 5255 5254 5254 5254 5254 5255 5256 5259 5261 5264 5268 5272 5276 5280 5285 5289 5295 5300 5306 5312 5319 5324 5329 5335 5341 5347 5354 5361 5368 5374 5381 5386 5392 5398 5404 5409 5413 5416 5419 5423 5427 5431 5435 5439 5444 5449 5454 5458 5463 5470 5478 5484 5489 5494 5498 5503 5507 5512 5516 5520 5523 5528 5531 5534 5535 5538 5542 5546 5549 5553 5556 5560 5564 5568 5572 5575
5279 5275 5271 5268 5265 5262 5260 5258 5256 5255 5254 5253 5252 5252 5252 5253 5254 5256 5259 5262 5265 5269 5273 5277 5281 5286 5291 5296 5302 5308 5314 5319 5326 5332 5338 5344 5351 5358 5364 5371 5377 5383 5389 5394 5401 5406 5409 5412 5415 5419 5423 5427 5431 5436 5440 5445 5449 5453 5459 5467 5473 5479 5484 5490 5494 5499 5503 5508 5512 5515 5519 5524 5527 5529 5531 5534 5537 5540 5544 5548 5551 5554 5558 5561 5565 5569
5278 5274 5270 5267 5264 5262 5259 5257 5255 5254 5253 5252 5251 5251 5251 5252 5254 5255 5257 5260 5263 5266 5270 5274 5279 5283 5288 5293 5298 5304 5310 5317 5323 5330 5335 5342 5349 5356 5362 5369 5374 5380 5386 5391 5397 5402 5406 5409 5412 5416 5419 5423 5427 5431 5435 5439 5443 5449 5456 5462 5468 5473 5479 5485 5490 5494 5499 5504 5507 5511 5516 5521 5524 5526 5528 5530 5534 5537 5541 5544 5548 5551 5553 5556 5559 5561
5277 5274 5270 5267 5264 5261 5259 5257 5255 5254 5253 5252 5251 5251 5251 5252 5253 5254 5256 5259 5261 5265 5269 5272 5276 5281 5285 5290 5296 5302 5309 5315 5321 5327 5334 5340 5347 5354 5360 5366 5372 5378 5383 5388 5393 5398 5402 5405 5409 5412 5415 5419 5423 5427 5431 5435 5440 5446 5452 5459 5464 5471 5477 5483 5486 5490 5495 5499 5504 5509 5513 5518 5520 5522 5524 5527 5531 5534 5538 5541 5544 5547 5550 5553 5555 5558
5277 5274 5270 5267 5264 5262 5259 5257 5255 5254 5253 5252 5252 5251 5251 5252 5253 5254 5255 5258 5260 5264 5267 5270 5274 5279 5283 5288 5294 5300 5307 5313 5320 5326 5333 5339 5345 5352 5358 5364 5369 5375 5381 5386 5390 5394 5398 5402 5406 5409 5411 5415 5418 5422 5427 5431 5436 5443 5449 5455 5461 5467 5472 5476 5481 5486 5491 5496 5501 5505 5509 5514 5517 5519 5521 5524 5528 5532 5535 5539 5541 5544 5547 5550 5553 5555
5277 5274 5271 5268 5265 5263 5260 5258 5256 5255 5254 5253 5252 5252 5252 5252 5253 5254 5256 5258 5260 5263 5266 5269 5273 5278 5283 5288 5293 5299 5306 5312 5319 5324 5331 5337 5344 5350 5356 5362 5367 5373 5379 5383 5386 5390 5395 5399 5402 5405 5408 5412 5415 5419 5423 5428 5433 5439 5446 5452 5456 5460 5463 5468 5475 5483 5489 5493 5498 5502 5506 5511 5514 5516 5519 5523 5526 5529 5532 5535 5538 5541 5544 5547 5550 5552
5277 5274 5272 5269 5267 5264 5261 5259 5258 5256 5255 5254 5253 5253 5253 5253 5254 5255 5257 5259 5261 5264 5266 5269 5273 5278 5282 5287 5293 5299 5305 5311 5317 5323 5329 5336 5342 5348 5354 5359 5365 5371 5376 5380 5383 5387 5392 5395 5398 5401 5405 5409 5412 5415 5419 5424 5430 5437 5443 5448 5453 5457 5461 5467 5474 5480 5484 5490 5494 5499 5502 5507 5511 5514 5517 5520 5523 5526 5529 5532 5535 5538 5541 5544 5547 5549
5278 5275 5272 5269 5267 5265 5263 5261 5259 5258 5257 5256 5255 5254 5254 5255 5256 5257 5259 5260 5262 5265 5267 5270 5274 5278 5283 5288 5294 5299 5305 5310 5316 5323 5329 5335 5341 5347 5352 5357 5363 5368 5374 5378 5382 5385 5389 5392 5395 5399 5402 5406 5409 5412 5417 5422 5428 5434 5440 5445 5449 5454 5459 5466 5471 5475 5480 5485 5490 5494 5498 5503 5507 5511 5513 5516 5519 5523 5526 5529 5532 5535 5538 5541 5543 5546
5278 5275 5272 5270 5268 5266 5264 5263 5261 5260 5259 5258 5257 5257 5257 5257 5258 5259 5261 5263 5264 5267 5269 5272 5276 5280 5284 5290 5295 5300 5305 5311 5316 5322 5328 5334 5340 5346 5351 5356 5361 5366 5371 5375 5379 5383 5386 5389 5393 5396 5399 5402 5406 5409 5414 5419 5425 5431 5436 5441 5446 5451 5456 5462 5467 5472 5477 5481 5485 5490 5494 5499 5503 5507 5510 5513 5517 5520 5523 5526 5529 5532 5534 5537 5540 5543
5278 5275 5273 5271 5269 5267 5266 5264 5264 5263 5261 5260 5260 5259 5260 5260 5261 5262 5264 5265 5267 5269 5272 5275 5279 5283 5287 5292 5296 5301 5306 5312 5317 5322 5328 5333 5339 5344 5349 5354 5359 5364 5369 5373 5377 5380 5383 5386 5389 5393 5396 5399 5402 5406 5411 5417 5423 5428 5433 5438 5443 5448 5453 5459 5465 5469 5474 5478 5482 5486 5491 5495 5498 5502 5506 5510 5514 5517 5520 5523 5526 5529 5531 5534 5537 5540
5278 5275 5273 5271 5269 5268 5266 5266 5265 5265 5264 5263 5263 5262 5262 5263 5264 5265 5267 5268 5270 5273 5275 5278 5282 5286 5290 5294 5298 5303 5308 5313 5318 5322 5327 5332 5337 5342 5348 5353 5358 5363 5367 5372 5375 5378 5381 5384 5387 5390 5393 5396 5399 5403 5408 5414 5420 5425 5430 5435 5441 5446 5452 5457 5462 5466 5470 5474 5479 5484 5488 5491 5494 5498 5503 5507 5510 5513 5516 5520 5523 5525 5528 5530 5534 5537
5279 5276 5274 5272 5270 5269 5267 5267 5266 5266 5266 5265 5265 5265 5265 5266 5267 5269 5270 5272 5274 5276 5279 5282 5285 5289 5292 5296 5300 5304 5309 5313 5318 5322 5326 5331 5335 5340 5345 5350 5355 5360 5364 5368 5372 5375 5378 5381 5384 5387 5390 5394 5398 5401 5406 5412 5417 5423 5428 5434 5439 5444 5449 5454 5458 5462 5466 5470 5476 5481 5485 5489 5492 5496 5500 5503 5506 5510 5514 5517 5519 5522 5524 5527 5530 5534
5279 5277 5275 5273 5271 5269 5268 5268 5267 5267 5267 5267 5267 5268 5268 5269 5270 5271 5273 5275 5277 5279 5282 5284 5288 5291 5294 5298 5301 5305 5309 5313 5317 5321 5325 5330 5334 5339 5344 5348 5353 5357 5361 5364 5368 5371 5374 5378 5381 5384 5387 5391 5395 5399 5404 5409 5414 5419 5425 5431 5436 5442 5447 5451 5455 5459 5463 5468 5473 5478 5482 5485 5489 5492 5496 5499 5503 5507 5510 5513 5515 5518 5521 5524 5528 5531